Location: Springfield
(37.2150°N, 93.2980°W)
Time: 21:49:29
(UTC-05:00)

Tiangong 2 - Pass Details

Date: 01 May 2019
Orbit: 379 x 387 km, 42.8° (Epoch: 24 May)

Event Time Altitude Azimuth Distance (km) Brightness Sun altitude
Exits shadow 05:11:37 11° 185° (S) 1,331 3.4 -12.9°
Maximum altitude 05:13:36 18° 143° (SE) 1,027 3.3 -12.6°
Drops below altitude 10° 05:15:50 10° 98° (E) 1,401 4.7 -12.2°
Sets 05:18:20 0° 78° (ENE) 2,259 6.5 -11.8°
